Flag for Lebanon Weather past 2 weeks in Sidon, Lebanon

Now
84 °F

Partly sunny.


Feels Like: 87 °F
Forecast: 75 / 84 °F
Wind: 14 mph from Southwest

Location: Beirut Airport

Current Time: Sep 18, 2014 at 11:39:27 AM

Latest Report: Sep 18, 2014 at 11:00 AM


Visibility: N/A

Pressure: 29.92 "Hg

Humidity: 58%

Dew point: 68 °F

Location of SidonLocation

Historic Weather in Sidon — Graph

°F

Sidon temperature yesterday

Maximum temperature yesterday: 86 °F (at 5:00 PM)
Minimum temperature yesterday: 77 °F (at 2:00 AM)
Average temperature yesterday: 81 °F

Past Weeks' High & Low Weather Summary

 TemperatureHumidityPressure
High88 °F (Sep 3, 3:00 PM)79% (Sep 4, 10:00 PM)29.98 "Hg (Sep 4, 10:00 PM)
Low77 °F (Sep 8, 5:00 AM)42% (Sep 9, 8:00 AM)29.74 "Hg (Sep 5, 6:00 PM)
Average82 °F60%29.88 "Hg
* Reported Sep 3 10:00 AM — Sep 18 10:00 AM, Sidon, Weather by CustomWeather, © 2014

Note: Actual official high and low records may vary slightly from our data, if they occured in-between our weather recording intervals... More about our weather records

Advertising

Sidon weather history for previous 24 hours

 ConditionsComfort  
Time TempWeatherWind HumidityBarometerVisibility
10:00 AM
Sep 18
84 °FPartly sunny.12 mph55%29.92 "HgN/A
9:00 AM82 °FPartly sunny.10 mph58%29.92 "HgN/A
8:00 AM79 °FPartly sunny.7 mph70%29.89 "HgN/A
7:00 AM79 °FPassing clouds.8 mph70%29.89 "HgN/A
6:00 AM79 °FPassing clouds.8 mph70%29.89 "HgN/A
5:00 AM81 °FPassing clouds.7 mph66%29.86 "HgN/A
4:00 AM81 °FPassing clouds.6 mph66%29.86 "HgN/A
3:00 AM81 °FPassing clouds.3 mph66%29.86 "HgN/A
2:00 AM81 °FPassing clouds.5 mph66%29.86 "HgN/A
1:00 AM81 °FPassing clouds.3 mph66%29.83 "HgN/A
12:00 AM81 °FPassing clouds.7 mph66%29.83 "Hg5 mi
11:00 PM
Sep 17
81 °FClear.7 mph66%29.83 "HgN/A
10:00 PM81 °FClear.6 mph70%29.83 "Hg10 mi
9:00 PM82 °FClear.7 mph66%29.80 "Hg10 mi
8:00 PM82 °FPassing clouds.7 mph66%29.77 "HgN/A
7:00 PM82 °FPassing clouds.9 mph66%29.77 "HgN/A
6:00 PM84 °FPassing clouds.8 mph58%29.77 "HgN/A
5:00 PM86 °FPassing clouds.9 mph55%29.80 "HgN/A
4:00 PM84 °FPassing clouds.13 mph62%29.80 "HgN/A
3:00 PM84 °FPassing clouds.8 mph62%29.83 "Hg5 mi
2:00 PM84 °FPassing clouds.7 mph62%29.83 "HgN/A
1:00 PM84 °FPassing clouds.8 mph62%29.83 "Hg5 mi
12:00 PM84 °FPassing clouds.7 mph62%29.86 "HgN/A
11:00 AM84 °FPassing clouds.8 mph58%29.86 "HgN/A
Weather by CustomWeather, © 2014

See weather overviewHow to use our weather pages